Total_Precipitation_Accumulation
0.38 0.45 0.41 0.29 0.21 0.19 0.25 0.31 0.39 0.39 0.38 0.42 0.52 0.57 0.46 0.46 0.50 0.48 0.56 0.57 0.48 0.42 0.37 0.37 0.38 0.40 0.45 0.53 0.59 0.61 0.63 0.68 0.78 0.92 1.10 1.29 1.48 1.64
0.47 0.48 0.47 0.42 0.40 0.31 0.28 0.31 0.36 0.41 0.42 0.38 0.49 0.55 0.57 0.47 0.51 0.53 0.57 0.56 0.46 0.43 0.36 0.33 0.34 0.36 0.36 0.38 0.43 0.49 0.50 0.48 0.52 0.59 0.66 0.73 0.80 0.94
0.74 0.66 0.60 0.57 0.56 0.47 0.42 0.39 0.38 0.43 0.51 0.52 0.59 0.71 0.74 0.65 0.64 0.59 0.54 0.56 0.49 0.47 0.40 0.37 0.33 0.31 0.34 0.35 0.35 0.36 0.40 0.41 0.41 0.41 0.44 0.48 0.49 0.52
0.98 0.99 0.86 0.74 0.70 0.59 0.53 0.50 0.49 0.54 0.60 0.71 0.77 0.84 0.84 0.81 0.75 0.59 0.48 0.46 0.50 0.52 0.45 0.41 0.40 0.37 0.34 0.33 0.32 0.31 0.31 0.33 0.35 0.34 0.34 0.35 0.40 0.42
0.80 0.97 1.02 0.98 0.84 0.76 0.70 0.62 0.58 0.56 0.61 0.67 0.75 0.91 0.99 0.98 0.79 0.54 0.44 0.48 0.44 0.54 0.53 0.43 0.38 0.37 0.34 0.31 0.28 0.26 0.25 0.27 0.29 0.31 0.30 0.29 0.29 0.31
0.66 0.71 0.84 0.99 0.95 0.87 0.80 0.75 0.71 0.72 0.74 0.73 0.78 0.91 1.09 1.14 0.92 0.64 0.53 0.51 0.47 0.40 0.44 0.41 0.38 0.35 0.32 0.30 0.27 0.26 0.25 0.26 0.28 0.28 0.29 0.30 0.27 0.25
0.72 0.66 0.63 0.73 0.83 0.87 0.78 0.74 0.76 0.76 0.76 0.74 0.78 0.93 1.08 1.18 0.95 0.71 0.57 0.51 0.48 0.42 0.38 0.33 0.31 0.31 0.33 0.34 0.33 0.29 0.26 0.26 0.29 0.30 0.30 0.29 0.28 0.26
0.90 0.80 0.67 0.61 0.62 0.69 0.74 0.74 0.74 0.73 0.74 0.76 0.79 0.91 1.02 1.06 1.09 0.90 0.69 0.50 0.42 0.40 0.41 0.37 0.34 0.34 0.30 0.27 0.32 0.32 0.29 0.27 0.26 0.26 0.28 0.30 0.29 0.27
0.91 0.86 0.67 0.53 0.56 0.59 0.67 0.68 0.65 0.60 0.60 0.66 0.71 0.81 1.06 1.22 1.32 1.05 0.85 0.72 0.57 0.50 0.47 0.41 0.40 0.37 0.32 0.29 0.37 0.33 0.30 0.28 0.26 0.24 0.24 0.26 0.29 0.30
0.78 0.83 0.77 0.66 0.60 0.61 0.58 0.55 0.53 0.50 0.46 0.45 0.52 0.68 0.92 1.28 1.46 1.43 1.32 1.10 0.93 0.74 0.59 0.47 0.40 0.36 0.34 0.31 0.36 0.36 0.32 0.30 0.29 0.29 0.26 0.24 0.27 0.30
0.65 0.67 0.69 0.63 0.55 0.45 0.46 0.42 0.40 0.39 0.36 0.36 0.40 0.57 0.75 1.01 1.36 1.52 1.45 1.23 0.99 0.75 0.57 0.45 0.38 0.35 0.32 0.29 0.31 0.36 0.34 0.31 0.31 0.31 0.32 0.29 0.27 0.30
0.66 0.69 0.71 0.63 0.49 0.36 0.40 0.44 0.37 0.33 0.35 0.35 0.37 0.43 0.56 0.73 1.04 1.21 1.17 1.10 0.93 0.72 0.50 0.43 0.36 0.39 0.34 0.27 0.23 0.24 0.27 0.31 0.32 0.32 0.32 0.34 0.33 0.26
0.55 0.57 0.65 0.59 0.45 0.32 0.35 0.40 0.35 0.35 0.42 0.42 0.43 0.47 0.57 0.70 0.82 1.04 1.09 0.99 0.86 0.66 0.48 0.47 0.39 0.38 0.36 0.28 0.24 0.22 0.20 0.21 0.24 0.29 0.33 0.35 0.36 0.32
0.58 0.60 0.68 0.66 0.52 0.42 0.37 0.35 0.28 0.26 0.32 0.38 0.38 0.39 0.46 0.57 0.73 0.93 1.09 1.06 0.92 0.80 0.69 0.65 0.57 0.49 0.41 0.31 0.24 0.21 0.21 0.21 0.21 0.23 0.26 0.34 0.35 0.37
0.65 0.82 0.85 0.80 0.68 0.56 0.49 0.45 0.34 0.29 0.32 0.35 0.36 0.34 0.37 0.49 0.72 0.97 1.15 1.26 1.16 0.98 0.87 0.78 0.71 0.65 0.60 0.42 0.28 0.23 0.23 0.23 0.23 0.24 0.25 0.27 0.29 0.34
0.65 0.84 0.96 1.01 0.95 0.82 0.71 0.64 0.48 0.40 0.39 0.39 0.40 0.43 0.49 0.61 0.77 0.86 0.99 1.13 1.17 1.04 0.90 0.84 0.77 0.78 0.70 0.56 0.41 0.29 0.24 0.24 0.25 0.27 0.30 0.30 0.32 0.35
0.60 0.87 1.08 1.20 1.22 1.18 1.04 0.92 0.78 0.65 0.55 0.54 0.56 0.57 0.59 0.65 0.72 0.84 0.98 1.03 1.00 0.86 0.80 0.81 0.82 0.82 0.81 0.74 0.56 0.37 0.29 0.24 0.23 0.31 0.39 0.37 0.34 0.34
0.56 0.82 1.05 1.22 1.28 1.36 1.35 1.24 1.06 0.89 0.79 0.76 0.72 0.71 0.71 0.69 0.73 0.87 1.02 1.07 0.98 0.85 0.75 0.70 0.80 0.88 0.87 0.75 0.60 0.45 0.34 0.29 0.27 0.32 0.40 0.42 0.34 0.32
0.51 0.68 0.78 0.92 1.09 1.27 1.35 1.33 1.16 1.03 1.04 1.01 0.92 0.86 0.86 0.83 0.81 0.88 1.01 1.09 1.08 0.97 0.87 0.80 0.82 0.86 0.81 0.60 0.43 0.41 0.41 0.36 0.37 0.37 0.39 0.41 0.36 0.31
0.40 0.50 0.57 0.68 0.86 1.12 1.27 1.33 1.26 1.14 1.13 1.15 1.11 1.04 1.02 0.96 0.89 0.86 0.96 1.06 1.08 1.05 0.99 0.90 0.78 0.74 0.72 0.63 0.55 0.45 0.42 0.51 0.53 0.49 0.43 0.43 0.42 0.44
0.39 0.44 0.48 0.60 0.74 0.95 1.15 1.30 1.33 1.26 1.20 1.25 1.25 1.15 1.10 1.05 0.94 0.86 0.91 1.01 1.10 1.11 1.00 0.86 0.74 0.79 0.96 1.06 0.87 0.60 0.50 0.51 0.62 0.64 0.63 0.65 0.59 0.57
0.52 0.53 0.58 0.67 0.80 1.02 1.21 1.31 1.34 1.31 1.27 1.30 1.28 1.20 1.14 1.11 1.01 0.96 0.96 1.01 1.03 1.04 1.02 1.00 1.10 1.14 1.13 1.08 0.85 0.64 0.60 0.60 0.67 0.73 0.73 0.70 0.66 0.58
0.58 0.57 0.59 0.65 0.81 1.02 1.17 1.29 1.33 1.34 1.33 1.29 1.26 1.19 1.14 1.12 1.10 1.06 1.01 1.02 1.06 1.10 1.21 1.24 1.23 1.20 1.09 1.03 0.96 0.86 0.78 0.78 0.83 0.80 0.66 0.58 0.55 0.54